STARLINK-32799, 62847

Orbit data source: Space-Track

STARLINK-32799, 62847 is a payload satellite owned by SpaceX/Seattle (US) in LEO that was launched on Mon, 27 Jan 2025 UTC via an FALCON 9 launch vehicle from the Air Force Eastern Test Range (AFETR). Payload-class satellites include a variety of spacecraft equipped with specific instruments for various scientific and technological missions. These include communications satellites like Starlink; space stations such as the ISS; scientific satellites like the Hubble; Earth observation satellites from companies like Planet Labs, Umbra, and HawkEye 360; GPS; miniature CubeSats for education and research; and military/defense satellites.

Loading next visibility...
Identifier
62847, 2025-019U
Orbit
LEO
Last TLE update
8 hours ago
Origin
Manufacturer
SpaceX/Seattle
Mission
Operational Commercial Communications
Bus & Motor
STARLINK V2M, Unknown motor
Mass
730 kg wet, ~700 kg dry
Launch date (UTC)
2025-01-27 (5 months ago)
Launch vehicle
FALCON 9
Launch site
Air Force Eastern Test Range (AFETR)
Object type
Payload
Rocket body
Debris
Shape & HBR
Box + 2 Pan, 29 m
Radar Cross Section
33.884 m², Large (>1 m²)

Expand to show TLE details & history

TLE from 8 hours ago
0 STARLINK-32799
1 62847U 25019U   25188.95319985  .00019140  00000-0  70272-3 0  9993
2 62847  43.0044  30.9492 0001576 273.7965  86.2706 15.27604360 24828
Epoch: 2025-07-07T22:52Z
TLE epoch observation values (Epoch: 2025-07-07T22:52:36.467Z)
Latitude
-0.00003°
Longitude
121.64207°
Altitude
482.682 km
Speed
7.626 km/s
True Right ascension
02h 03m 47s
True Declination
0° 00' 00"
Sunlit
Object was in daylight at epoch
Visualization orbit readout
Latitude
42.63583°
Longitude
-139.33576°
Altitude
487.054 km
Speed
7.627 km/s
Apparent Right ascension
07h 57m 53s
Apparent Declination
3° 15' 27"
Sunlit
Object is in daylight
Visualization observer readout
Local Sidereal Time
19:14:30
Azimuth
344.401° N
Elevation
-45.693°
Doppler factor
1
Orbital elements
Apogee altitude
486.002 km
Perigee altitude
483.839 km
Semi-major axis
6,863.058 km
Eccentricity
0.00016
Inclination
43.0044°
RAAN
30.9492°
Arg. of periapsis
273.7965°
True anomaly
Unknown
Mean anomaly
86.2706°
Eccentric anomaly
Unknown
Mean motion
3.81739 °/min
Orbital period
94.31 mins
BSTAR
0.00070272
Loading maneuver chart data...
Loading SW <> Apogee altitude chart data...
Loading historical data...
Loading historical data...
Loading historical data...
Loading historical data...
Loading historical data...
Loading historical data...
Loading historical data...

STARLINK-32799 Visibility forecast

Observer location: undefined°, undefined°

Span
Click to sort rows by Start time (UTC) header in descending order
Start Az.
Max El. time (UTC)
Max El. Az.
Max El.
End time (UTC)
End Az.
5 mins2025-07-08 16:20:00.481Z197.413° SSW2025-07-08 16:22:00.481Z159.379° S22.998°2025-07-08 16:25:00.481Z95.192° ESE
5 mins2025-07-08 17:59:00.481Z256.041° W2025-07-08 18:01:00.481Z296.104° NW44.556°2025-07-08 18:04:00.481Z70.638° E
5 mins2025-07-08 19:38:00.481Z290.778° WNW2025-07-08 19:40:00.481Z341.465° N37.332°2025-07-08 19:43:00.481Z73.474° E
6 mins2025-07-08 21:17:00.481Z288.534° WNW2025-07-08 21:19:00.481Z291.297° WNW42.877°2025-07-08 21:23:00.481Z108.626° ESE
4 mins2025-07-08 22:57:00.481Z240.344° WSW2025-07-08 22:58:00.481Z216.497° SW21.435°2025-07-08 23:01:00.481Z161.411° S
|